FW1093 Weather Reports


time (UTC)temp
F
wind
direction
speed
knots
gust
knots
rain 1hr
in
rain 24hr
in
rain mn
in
humidity
%
barometer
mb
20260509195342 55 290 0.0 0.0 0.32 0.43 0.42 93 1012.2
20260509194330 55 290 0.0 0.0 0.31 0.41 0.40 93 1012.2
20260509193319 55 354 0.0 0.0 0.29 0.36 0.35 92 1012.2
20260509192335 56 354 0.0 0.0 0.18 0.21 0.20 92 1012.1
20260509191329 56 153 0.0 0.9 0.10 0.13 0.12 91 1012.1
20260509190315 56 153 0.0 0.0 0.08 0.11 0.10 90 1011.8
20260509185322 56 153 0.0 0.9 0.08 0.11 0.10 88 1011.6
20260509184313 57 198 0.0 2.6 0.07 0.10 0.09 86 1011.3
20260509183348 59 153 0.0 0.9 0.04 0.07 0.06 82 1011.6
20260509182315 59 129 0.0 0.9 0.00 0.03 0.02 77 1011.4
20260509181323 60 129 0.0 0.0 0.00 0.03 0.02 75 1011.1
20260509180313 61 129 0.0 0.9 0.00 0.03 0.02 73 1011.3
20260509175408 61 129 0.0 0.0 0.00 0.03 0.02 73 1011.2
20260509174315 62 129 0.0 0.9 0.00 0.03 0.02 70 1011.2
20260509173330 62 124 0.0 0.0 0.00 0.03 0.02 71 1011.2
20260509172320 63 284 0.0 0.9 0.00 0.03 0.02 70 1011.5
20260509171336 62 49 0.0 2.6 0.00 0.03 0.02 71 1011.7
20260509170325 61 134 0.0 0.9 0.00 0.03 0.02 73 1011.7
20260509165315 61 117 0.0 0.9 0.00 0.03 0.02 73 1012.0
20260509164329 61 297 0.0 0.9 0.00 0.03 0.02 74 1012.2
20260509163320 60 278 0.0 1.7 0.00 0.03 0.02 74 1012.3
20260509162314 59 132 0.0 0.9 0.00 0.03 0.02 76 1012.5
20260509161322 59 326 0.9 2.6 0.00 0.03 0.02 77 1012.6
20260509160352 58 209 0.0 0.9 0.00 0.03 0.02 79 1012.8
20260509155325 58 167 0.0 1.7 0.00 0.03 0.02 78 1012.8
20260509154332 58 118 0.0 1.7 0.00 0.03 0.02 79 1012.8
20260509153322 58 133 0.0 0.9 0.00 0.03 0.02 80 1012.8
20260509152313 58 243 0.0 0.0 0.00 0.03 0.02 81 1013.1
20260509151327 57 167 0.0 0.9 0.00 0.03 0.02 82 1013.0
20260509150315 56 115 0.0 0.9 0.00 0.03 0.02 83 1012.9
20260509145332 56 116 0.0 0.9 0.00 0.03 0.02 84 1013.3
20260509144320 56 212 0.0 0.0 0.00 0.03 0.02 85 1012.9
20260509143329 55 212 0.0 0.0 0.00 0.03 0.02 88 1012.7
20260509142319 54 212 0.0 0.0 0.00 0.03 0.02 87 1012.9
20260509141352 54 212 0.0 0.0 0.00 0.03 0.02 87 1013.3
20260509140321 53 212 0.0 0.9 0.00 0.03 0.02 87 1012.8
20260509135357 53 324 0.0 0.0 0.00 0.03 0.02 89 1013.0
20260509134324 52 338 0.0 0.9 0.00 0.03 0.02 89 1013.1
20260509133338 51 7 0.0 1.7 0.00 0.03 0.02 89 1012.8
20260509132334 51 289 0.0 1.7 0.00 0.03 0.02 91 1013.0
20260509131320 50 276 0.0 0.9 0.00 0.03 0.02 91 1013.2
20260509130330 50 288 0.0 0.9 0.00 0.03 0.02 91 1013.5
20260509125316 50 274 0.0 0.0 0.00 0.03 0.02 91 1013.8
20260509124324 49 274 0.0 0.0 0.00 0.03 0.02 91 1013.8
20260509123313 49 276 0.0 1.7 0.00 0.03 0.02 92 1014.0
20260509122321 48 257 0.0 1.7 0.00 0.03 0.02 93 1013.7
20260509121355 48 283 0.0 0.0 0.00 0.03 0.02 94 1013.7
20260509120323 48 283 0.0 0.9 0.00 0.03 0.02 94 1014.0
20260509115312 47 283 0.0 0.9 0.00 0.03 0.02 94 1013.8
20260509114329 47 282 0.0 0.9 0.01 0.03 0.02 94 1013.9
20260509113337 47 281 0.0 0.9 0.01 0.03 0.02 95 1013.9
20260509112326 47 282 0.0 0.0 0.01 0.03 0.02 94 1013.9
20260509111315 47 281 0.0 0.9 0.01 0.03 0.02 94 1013.8
20260509110321 47 281 0.0 0.9 0.01 0.03 0.02 95 1013.8
20260509105329 47 281 0.0 0.9 0.01 0.03 0.02 95 1013.6
20260509104320 46 282 0.0 0.9 0.00 0.02 0.01 95 1013.5
20260509103314 46 329 0.0 0.0 0.00 0.02 0.01 94 1013.4
20260509102322 46 329 0.0 0.9 0.00 0.02 0.01 94 1013.5
20260509101312 46 319 0.0 0.0 0.00 0.02 0.01 94 1013.4
20260509100329 46 319 0.0 0.0 0.00 0.02 0.01 94 1013.7
20260509095344 45 319 0.0 0.0 0.00 0.02 0.01 94 1013.6
20260509094313 45 319 0.0 0.0 0.00 0.02 0.01 94 1013.4
20260509093322 45 319 0.0 0.0 0.00 0.02 0.01 93 1013.1
20260509092312 45 319 0.0 0.0 0.00 0.02 0.01 93 1013.3
20260509091330 45 319 0.0 0.0 0.00 0.02 0.01 93 1013.4
20260509090319 45 319 0.0 0.0 0.01 0.02 0.01 93 1013.5
20260509085327 46 319 0.0 0.0 0.01 0.02 0.01 92 1013.4
20260509084317 46 319 0.0 0.0 0.01 0.02 0.01 92 1013.5
20260509083326 46 319 0.0 0.0 0.01 0.02 0.01 91 1013.5
20260509082315 46 319 0.0 0.0 0.01 0.02 0.01 91 1013.5
20260509081325 46 319 0.0 0.0 0.01 0.02 0.01 90 1013.5
20260509080315 46 319 0.0 0.0 0.00 0.01 0.00 90 1013.5
20260509075331 46 319 0.0 0.0 0.00 0.01 0.00 90 1013.4
20260509073328 46 319 0.0 0.0 0.00 0.01 0.00 89 1013.2
20260509072330 46 319 0.0 0.0 0.00 0.01 0.00 89 1013.1
20260509071318 46 319 0.0 0.0 0.00 0.01 0.00 89 1013.2
20260509070351 46 319 0.0 0.0 0.00 0.01 0.00 88 1013.0
20260509065320 46 319 0.0 0.0 0.00 0.01 0.00 89 1013.0
20260509064337 46 319 0.0 0.0 0.00 0.01 0.00 88 1013.3
20260509063327 46 319 0.0 0.0 0.00 0.01 0.00 88 1013.4
20260509062336 46 319 0.0 0.0 0.00 0.01 0.00 88 1013.5
20260509061326 46 319 0.0 0.0 0.00 0.01 0.00 88 1013.6
20260509060315 45 319 0.0 0.0 0.00 0.01 0.00 88 1013.9
20260509055323 46 319 0.0 0.0 0.00 0.01 0.00 87 1013.8
20260509054313 46 319 0.0 0.0 0.00 0.01 0.00 87 1013.8
20260509053328 46 319 0.0 0.0 0.00 0.01 0.00 86 1013.7
20260509052315 46 319 0.0 0.0 0.00 0.01 0.00 86 1013.7
20260509051322 46 319 0.0 0.0 0.00 0.01 0.00 86 1013.8
20260509050316 46 319 0.0 0.0 0.00 0.01 0.00 86 1013.8
20260509045347 46 319 0.0 0.0 0.00 0.01 0.00 86 1013.8
20260509044320 45 319 0.0 0.0 0.00 0.01 0.00 85 1013.9
20260509043337 45 319 0.0 0.0 0.00 0.01 0.00 85 1014.0
20260509042344 45 319 0.0 0.0 0.00 0.01 0.00 85 1014.0
20260509041331 45 319 0.0 0.0 0.00 0.01 0.00 85 1014.0
20260509040319 45 319 0.0 0.0 0.00 0.01 0.00 85 1014.1
20260509035327 45 319 0.0 0.0 0.00 0.01 0.01 83 1014.0
20260509034336 45 319 0.0 0.0 0.00 0.01 0.01 84 1013.9
20260509033327 45 319 0.0 0.0 0.00 0.01 0.01 83 1013.9
20260509032317 45 319 0.0 0.0 0.00 0.01 0.01 82 1013.7
20260509031326 45 319 0.0 0.0 0.00 0.01 0.01 82 1013.8
20260509030335 44 319 0.0 0.0 0.00 0.01 0.01 83 1013.5
20260509025324 44 319 0.0 0.0 0.00 0.01 0.01 82 1013.7
20260509024312 44 319 0.0 0.0 0.00 0.01 0.01 81 1013.4
20260509023319 44 319 0.0 0.0 0.00 0.01 0.01 82 1013.3
20260509022328 43 319 0.0 0.0 0.00 0.01 0.01 81 1013.5
20260509021343 43 319 0.0 0.0 0.00 0.01 0.01 81 1013.5
20260509020330 43 320 0.0 0.0 0.00 0.01 0.01 79 1013.5
20260509015319 44 319 0.0 0.0 0.00 0.01 0.01 79 1013.4
20260509014328 44 319 0.0 0.0 0.00 0.01 0.01 77 1013.5
20260509013334 45 319 0.0 0.0 0.00 0.01 0.01 76 1013.3
20260509012323 45 319 0.0 0.0 0.00 0.01 0.01 76 1013.2
20260509011312 46 319 0.0 0.0 0.00 0.01 0.01 73 1013.2
20260509010345 46 319 0.0 0.0 0.00 0.01 0.01 74 1012.9
20260509005331 47 319 0.0 0.0 0.00 0.01 0.01 73 1012.7
20260509004337 48 319 0.0 0.0 0.00 0.01 0.01 74 1012.6
20260509003327 48 319 0.0 0.0 0.00 0.01 0.01 72 1012.4
20260509002316 49 319 0.0 0.0 0.00 0.01 0.01 72 1012.2
20260509001350 50 319 0.0 0.0 0.00 0.01 0.01 70 1012.1
20260509000318 51 319 0.0 0.0 0.00 0.01 0.01 69 1012.3
20260508235316 52 319 0.0 0.0 0.00 0.01 0.01 67 1012.1
20260508234326 53 319 0.0 0.0 0.00 0.01 0.01 64 1012.0
20260508233316 55 319 0.0 0.0 0.00 0.01 0.01 62 1011.8
20260508232332 56 319 0.0 0.0 0.00 0.01 0.01 56 1011.6
20260508231320 56 319 0.0 0.0 0.00 0.01 0.01 54 1011.5
20260508230357 57 319 0.0 0.0 0.00 0.01 0.01 52 1011.5
20260508225323 58 318 0.0 1.7 0.00 0.01 0.01 50 1011.4
20260508224313 59 342 0.0 1.7 0.00 0.01 0.01 49 1011.1
20260508223323 60 120 0.0 2.6 0.00 0.01 0.01 49 1011.1
20260508222314 61 290 0.0 1.7 0.00 0.01 0.01 49 1011.0
20260508221322 60 324 0.0 3.5 0.00 0.01 0.01 48 1011.2
20260508220337 60 278 0.0 2.6 0.00 0.01 0.01 53 1011.2
20260508215326 59 289 0.0 2.6 0.00 0.01 0.01 53 1011.2
20260508214321 57 77 0.9 3.5 0.00 0.01 0.01 56 1011.1
20260508213330 58 30 0.9 4.3 0.00 0.01 0.01 54 1011.4